Location: Taukkyan
(23.1052°N, 94.0030°E)
Time: 11:56:38
(UTC+00:00)

Cosmos 1538 Rocket - Pass Details

Date: 06 July 2020
Orbit: 753 x 791 km, 74.0° (Epoch: 14 August)

Event Time Altitude Azimuth Distance (km) Brightness Sun altitude
Exits shadow 14:57:56 79° 325° (NW) 805 4.0 -28.2°
Drops below altitude 10° 15:03:04 10° 12° (NNE) 2,344 6.9 -29.1°
Sets 15:05:27 0° 13° (NNE) 3,270 7.7 -29.4°
